Location: Newark
(46.7000°N, 60.6000°W)
Time: 08:36:00
(UTC+00:00)

Vanguard 3 - Pass Details

Date: 30 October 2020
Orbit: 508 x 3262 km, 33.3° (Epoch: 29 November)

Event Time Altitude Azimuth Distance (km) Brightness Sun altitude
Rises 08:34:54 0° 224° (SW) 5,937 - -22.3°
Exits shadow 08:36:44 - 221° (SW) 5,592 11.0 -22.0°
Reaches altitude 10° 08:38:42 10° 217° (SW) 5,249 10.9 -21.6°
Maximum altitude 08:53:46 42° 154° (SSE) 4,029 10.8 -19.0°
Drops below altitude 10° 09:11:16 10° 93° (E) 6,074 13.0 -16.1°
Sets 09:16:04 0° 88° (E) 6,918 13.7 -15.2°
